| time (UTC) | temp F | wind direction | speed MPH | gust MPH | rain 1hr in | rain 24hr in | rain mn in | humidity % | barometer mb |
| 20260505170030 | 77 | 217 | 8.0 | 19.0 | 0.00 | 0.02 | 0.02 | 47 | 1008.4 |
| 20260505164528 | 77 | 233 | 8.0 | 19.0 | 0.00 | 0.02 | 0.02 | 48 | 1008.7 |
| 20260505163028 | 77 | 255 | 8.0 | 15.0 | 0.00 | 0.02 | 0.02 | 47 | 1008.8 |
| 20260505161532 | 76 | 246 | 8.0 | 15.0 | 0.00 | 0.02 | 0.02 | 48 | 1009.2 |
| 20260505153028 | 75 | 191 | 7.0 | 13.0 | 0.00 | 0.02 | 0.02 | 50 | 1009.4 |
| 20260505151534 | 74 | 244 | 9.0 | 18.0 | 0.00 | 0.02 | 0.02 | 50 | 1009.5 |
| 20260505124542 | 64 | 245 | 5.0 | 9.0 | 0.00 | 0.02 | 0.02 | 66 | 1010.3 |
| 20260505123033 | 64 | 257 | 3.0 | 6.0 | 0.00 | 0.02 | 0.02 | 69 | 1010.5 |
| 20260505121559 | 64 | 248 | 2.0 | 5.0 | 0.00 | 0.02 | 0.02 | 71 | 1010.3 |
| 20260505120029 | 64 | 0 | 0.0 | 1.0 | 0.00 | 0.02 | 0.02 | 75 | 1010.3 |
| 20260505114533 | 62 | 0 | 0.0 | 0.0 | 0.00 | 0.02 | 0.02 | 78 | 1010.4 |
| 20260505113032 | 62 | 0 | 0.0 | 2.0 | 0.00 | 0.02 | 0.02 | 80 | 1010.0 |
| 20260505111536 | 59 | 0 | 0.0 | 5.0 | 0.00 | 0.02 | 0.02 | 80 | 1010.0 |
| 20260505101528 | 52 | 0 | 0.0 | 0.0 | 0.00 | 0.02 | 0.02 | 91 | 1009.8 |
| 20260505100038 | 52 | 0 | 0.0 | 0.0 | 0.00 | 0.02 | 0.02 | 90 | 1009.5 |
| 20260505094528 | 52 | 0 | 0.0 | 0.0 | 0.00 | 0.02 | 0.02 | 89 | 1009.3 |
| 20260505093033 | 52 | 0 | 0.0 | 0.0 | 0.00 | 0.02 | 0.02 | 89 | 1009.4 |
| 20260505091535 | 53 | 0 | 0.0 | 0.0 | 0.00 | 0.02 | 0.02 | 88 | 1009.2 |
| 20260505090030 | 53 | 0 | 0.0 | 0.0 | 0.00 | 0.02 | 0.02 | 88 | 1009.3 |
| 20260505084530 | 54 | 0 | 0.0 | 0.0 | 0.00 | 0.02 | 0.02 | 87 | 1009.2 |
| 20260505083041 | 55 | 302 | 0.0 | 0.0 | 0.00 | 0.02 | 0.02 | 86 | 1009.2 |
| 20260505081532 | 55 | 0 | 0.0 | 1.0 | 0.00 | 0.02 | 0.02 | 85 | 1009.2 |
| 20260505080043 | 56 | 318 | 0.0 | 2.0 | 0.00 | 0.02 | 0.02 | 84 | 1009.0 |
| 20260505074527 | 56 | 311 | 0.0 | 2.0 | 0.01 | 0.02 | 0.02 | 84 | 1008.9 |
| 20260505073027 | 57 | 288 | 1.0 | 3.0 | 0.02 | 0.02 | 0.02 | 83 | 1008.8 |
| 20260505071537 | 58 | 290 | 1.0 | 3.0 | 0.02 | 0.02 | 0.02 | 82 | 1008.7 |
| 20260505070030 | 58 | 271 | 1.0 | 2.0 | 0.02 | 0.02 | 0.02 | 83 | 1008.7 |
| 20260505064530 | 61 | 0 | 0.0 | 2.0 | 0.01 | 0.01 | 0.01 | 74 | 1009.2 |
| 20260505063042 | 61 | 0 | 0.0 | 0.0 | 0.00 | 0.00 | 0.00 | 69 | 1008.7 |
| 20260505061533 | 61 | 0 | 0.0 | 1.0 | 0.00 | 0.00 | 0.00 | 66 | 1008.8 |
| 20260505060032 | 62 | 0 | 0.0 | 2.0 | 0.00 | 0.00 | 0.00 | 66 | 1008.9 |
| 20260505054538 | 63 | 269 | 0.0 | 4.0 | 0.00 | 0.00 | 0.00 | 63 | 1009.0 |
| 20260505053028 | 62 | 277 | 0.0 | 1.0 | 0.00 | 0.00 | 0.00 | 62 | 1009.1 |
| 20260505051537 | 62 | 0 | 0.0 | 1.0 | 0.00 | 0.00 | 0.00 | 63 | 1009.1 |
| 20260505041543 | 63 | 278 | 0.0 | 5.0 | 0.00 | 0.00 | 0.00 | 60 | 1008.9 |
| 20260505040034 | 63 | 273 | 0.0 | 4.0 | 0.00 | 0.00 | 0.00 | 59 | 1008.6 |
| 20260505034529 | 64 | 0 | 0.0 | 6.0 | 0.00 | 0.00 | 0.00 | 58 | 1008.6 |
| 20260505033030 | 64 | 238 | 1.0 | 5.0 | 0.00 | 0.00 | 0.00 | 57 | 1008.5 |
| 20260505031531 | 64 | 287 | 0.0 | 4.0 | 0.00 | 0.00 | 0.00 | 58 | 1008.4 |
| 20260505030027 | 65 | 238 | 0.0 | 7.0 | 0.00 | 0.00 | 0.00 | 56 | 1008.5 |
| 20260505024530 | 65 | 270 | 1.0 | 4.0 | 0.00 | 0.00 | 0.00 | 56 | 1008.5 |
| 20260505023028 | 68 | 236 | 2.0 | 10.0 | 0.00 | 0.00 | 0.00 | 50 | 1008.4 |
| 20260505021528 | 68 | 250 | 4.0 | 13.0 | 0.00 | 0.00 | 0.00 | 49 | 1008.5 |
| 20260505020034 | 68 | 217 | 6.0 | 12.0 | 0.00 | 0.00 | 0.00 | 49 | 1008.6 |
| 20260505014530 | 68 | 219 | 6.0 | 14.0 | 0.00 | 0.00 | 0.00 | 49 | 1008.5 |
| 20260505013031 | 69 | 248 | 5.0 | 9.0 | 0.00 | 0.00 | 0.00 | 48 | 1008.4 |
| 20260505011528 | 69 | 156 | 4.0 | 13.0 | 0.00 | 0.00 | 0.00 | 48 | 1008.2 |
| 20260505010032 | 69 | 217 | 5.0 | 12.0 | 0.00 | 0.00 | 0.00 | 47 | 1008.2 |
| 20260505004531 | 69 | 229 | 5.0 | 10.0 | 0.00 | 0.00 | 0.00 | 48 | 1008.0 |
| 20260505003031 | 69 | 220 | 5.0 | 9.0 | 0.00 | 0.00 | 0.00 | 47 | 1007.9 |
| 20260505001528 | 70 | 236 | 6.0 | 14.0 | 0.00 | 0.00 | 0.00 | 47 | 1008.0 |
| 20260505000031 | 70 | 221 | 4.0 | 10.0 | 0.00 | 0.00 | 0.00 | 48 | 1007.8 |
| 20260504234530 | 70 | 219 | 4.0 | 11.0 | 0.00 | 0.00 | 0.00 | 47 | 1007.8 |
| 20260504233027 | 70 | 223 | 4.0 | 12.0 | 0.00 | 0.00 | 0.00 | 47 | 1007.7 |
| 20260504231533 | 71 | 226 | 10.0 | 17.0 | 0.00 | 0.00 | 0.00 | 44 | 1007.5 |
| 20260504230029 | 72 | 150 | 6.0 | 19.0 | 0.00 | 0.00 | 0.00 | 44 | 1007.4 |
| 20260504224535 | 72 | 207 | 9.0 | 20.0 | 0.00 | 0.00 | 0.00 | 43 | 1007.3 |
| 20260504223031 | 72 | 239 | 8.0 | 15.0 | 0.00 | 0.00 | 0.00 | 41 | 1007.3 |
| 20260504221529 | 73 | 206 | 6.0 | 17.0 | 0.00 | 0.00 | 0.00 | 41 | 1007.3 |
| 20260504220030 | 73 | 226 | 10.0 | 22.0 | 0.00 | 0.00 | 0.00 | 42 | 1007.3 |
| 20260504214540 | 73 | 251 | 11.0 | 17.0 | 0.00 | 0.00 | 0.00 | 41 | 1007.4 |
| 20260504213031 | 74 | 154 | 12.0 | 23.0 | 0.00 | 0.00 | 0.00 | 38 | 1007.5 |
| 20260504211527 | 73 | 219 | 9.0 | 15.0 | 0.00 | 0.00 | 0.00 | 41 | 1007.5 |
| 20260504210028 | 74 | 210 | 8.0 | 13.0 | 0.00 | 0.00 | 0.00 | 39 | 1007.4 |
| 20260504204529 | 74 | 221 | 4.0 | 12.0 | 0.00 | 0.00 | 0.00 | 41 | 1007.6 |
| 20260504203031 | 73 | 218 | 8.0 | 17.0 | 0.00 | 0.00 | 0.00 | 39 | 1007.9 |
| 20260504201528 | 73 | 238 | 6.0 | 17.0 | 0.00 | 0.00 | 0.00 | 42 | 1008.2 |
| 20260504200040 | 73 | 200 | 6.0 | 18.0 | 0.00 | 0.00 | 0.00 | 41 | 1008.2 |
| 20260504194530 | 72 | 210 | 8.0 | 17.0 | 0.00 | 0.00 | 0.00 | 42 | 1008.4 |
| 20260504193029 | 72 | 198 | 7.0 | 15.0 | 0.00 | 0.00 | 0.00 | 41 | 1008.7 |
| 20260504191533 | 72 | 217 | 8.0 | 16.0 | 0.00 | 0.00 | 0.00 | 43 | 1009.0 |
| 20260504190031 | 71 | 210 | 7.0 | 16.0 | 0.00 | 0.00 | 0.00 | 43 | 1009.1 |
| 20260504184536 | 71 | 225 | 9.0 | 16.0 | 0.00 | 0.00 | 0.00 | 42 | 1009.4 |
| 20260504183034 | 71 | 217 | 6.0 | 13.0 | 0.00 | 0.00 | 0.00 | 44 | 1009.4 |
| 20260504181531 | 71 | 240 | 7.0 | 13.0 | 0.00 | 0.00 | 0.00 | 42 | 1009.7 |
| 20260504180032 | 70 | 243 | 6.0 | 15.0 | 0.00 | 0.00 | 0.00 | 42 | 1009.8 |
| 20260504174528 | 70 | 231 | 9.0 | 17.0 | 0.00 | 0.00 | 0.00 | 43 | 1010.0 |
| 20260504173030 | 69 | 161 | 6.0 | 14.0 | 0.00 | 0.00 | 0.00 | 44 | 1010.1 |
| 20260504171529 | 69 | 197 | 7.0 | 14.0 | 0.00 | 0.00 | 0.00 | 43 | 1010.7 |